Index of /20260503/WXO-DD/model_rdps/10km/06/079
Name Last modified Size Description
Parent Directory -
20260503T06Z_MSC_RDPS_AbsoluteVorticity_IsbL-0250_RLatLon0.09_PT079H.grib2 2026-05-03 09:08 601K
20260503T06Z_MSC_RDPS_AbsoluteVorticity_IsbL-0500_RLatLon0.09_PT079H.grib2 2026-05-03 09:08 562K
20260503T06Z_MSC_RDPS_AbsoluteVorticity_IsbL-0700_RLatLon0.09_PT079H.grib2 2026-05-03 09:08 606K
20260503T06Z_MSC_RDPS_AbsoluteVorticity_IsbL-0850_RLatLon0.09_PT079H.grib2 2026-05-03 09:08 790K
20260503T06Z_MSC_RDPS_AirTemp_AGL-120m_RLatLon0.09_PT079H.grib2 2026-05-03 09:08 383K
20260503T06Z_MSC_RDPS_AirTemp_AGL-2m_RLatLon0.09_PT079H.grib2 2026-05-03 09:08 625K
20260503T06Z_MSC_RDPS_AirTemp_AGL-40m_RLatLon0.09_PT079H.grib2 2026-05-03 09:08 397K
20260503T06Z_MSC_RDPS_AirTemp_AGL-80m_RLatLon0.09_PT079H.grib2 2026-05-03 09:08 389K
20260503T06Z_MSC_RDPS_AirTemp_IsbL-0001_RLatLon0.09_PT079H.grib2 2026-05-03 09:08 240K
20260503T06Z_MSC_RDPS_AirTemp_IsbL-0005_RLatLon0.09_PT079H.grib2 2026-05-03 09:08 286K
20260503T06Z_MSC_RDPS_AirTemp_IsbL-0010_RLatLon0.09_PT079H.grib2 2026-05-03 09:08 387K
20260503T06Z_MSC_RDPS_AirTemp_IsbL-0020_RLatLon0.09_PT079H.grib2 2026-05-03 09:08 317K
20260503T06Z_MSC_RDPS_AirTemp_IsbL-0030_RLatLon0.09_PT079H.grib2 2026-05-03 09:08 333K
20260503T06Z_MSC_RDPS_AirTemp_IsbL-0050_RLatLon0.09_PT079H.grib2 2026-05-03 09:08 314K
20260503T06Z_MSC_RDPS_AirTemp_IsbL-0100_RLatLon0.09_PT079H.grib2 2026-05-03 09:08 420K
20260503T06Z_MSC_RDPS_AirTemp_IsbL-0150_RLatLon0.09_PT079H.grib2 2026-05-03 09:08 411K
20260503T06Z_MSC_RDPS_AirTemp_IsbL-0175_RLatLon0.09_PT079H.grib2 2026-05-03 09:08 404K
20260503T06Z_MSC_RDPS_AirTemp_IsbL-0200_RLatLon0.09_PT079H.grib2 2026-05-03 09:08 408K
20260503T06Z_MSC_RDPS_AirTemp_IsbL-0225_RLatLon0.09_PT079H.grib2 2026-05-03 09:08 409K
20260503T06Z_MSC_RDPS_AirTemp_IsbL-0250_RLatLon0.09_PT079H.grib2 2026-05-03 09:08 418K
20260503T06Z_MSC_RDPS_AirTemp_IsbL-0275_RLatLon0.09_PT079H.grib2 2026-05-03 09:08 400K
20260503T06Z_MSC_RDPS_AirTemp_IsbL-0300_RLatLon0.09_PT079H.grib2 2026-05-03 09:08 407K
20260503T06Z_MSC_RDPS_AirTemp_IsbL-0350_RLatLon0.09_PT079H.grib2 2026-05-03 09:08 423K
20260503T06Z_MSC_RDPS_AirTemp_IsbL-0400_RLatLon0.09_PT079H.grib2 2026-05-03 09:08 427K
20260503T06Z_MSC_RDPS_AirTemp_IsbL-0450_RLatLon0.09_PT079H.grib2 2026-05-03 09:08 433K
20260503T06Z_MSC_RDPS_AirTemp_IsbL-0500_RLatLon0.09_PT079H.grib2 2026-05-03 09:08 441K
20260503T06Z_MSC_RDPS_AirTemp_IsbL-0550_RLatLon0.09_PT079H.grib2 2026-05-03 09:08 455K
20260503T06Z_MSC_RDPS_AirTemp_IsbL-0600_RLatLon0.09_PT079H.grib2 2026-05-03 09:08 438K
20260503T06Z_MSC_RDPS_AirTemp_IsbL-0650_RLatLon0.09_PT079H.grib2 2026-05-03 09:08 452K
20260503T06Z_MSC_RDPS_AirTemp_IsbL-0700_RLatLon0.09_PT079H.grib2 2026-05-03 09:08 478K
20260503T06Z_MSC_RDPS_AirTemp_IsbL-0750_RLatLon0.09_PT079H.grib2 2026-05-03 09:08 403K
20260503T06Z_MSC_RDPS_AirTemp_IsbL-0800_RLatLon0.09_PT079H.grib2 2026-05-03 09:08 570K
20260503T06Z_MSC_RDPS_AirTemp_IsbL-0850_RLatLon0.09_PT079H.grib2 2026-05-03 09:08 641K
20260503T06Z_MSC_RDPS_AirTemp_IsbL-0875_RLatLon0.09_PT079H.grib2 2026-05-03 09:08 534K
20260503T06Z_MSC_RDPS_AirTemp_IsbL-0900_RLatLon0.09_PT079H.grib2 2026-05-03 09:08 540K
20260503T06Z_MSC_RDPS_AirTemp_IsbL-0925_RLatLon0.09_PT079H.grib2 2026-05-03 09:08 666K
20260503T06Z_MSC_RDPS_AirTemp_IsbL-0950_RLatLon0.09_PT079H.grib2 2026-05-03 09:08 661K
20260503T06Z_MSC_RDPS_AirTemp_IsbL-0970_RLatLon0.09_PT079H.grib2 2026-05-03 09:08 653K
20260503T06Z_MSC_RDPS_AirTemp_IsbL-0985_RLatLon0.09_PT079H.grib2 2026-05-03 09:08 510K
20260503T06Z_MSC_RDPS_AirTemp_IsbL-1000_RLatLon0.09_PT079H.grib2 2026-05-03 09:08 494K
20260503T06Z_MSC_RDPS_AirTemp_IsbL-1015_RLatLon0.09_PT079H.grib2 2026-05-03 09:08 498K
20260503T06Z_MSC_RDPS_Albedo_Sfc_RLatLon0.09_PT079H.grib2 2026-05-03 09:08 153K
20260503T06Z_MSC_RDPS_CAPE_Sfc_RLatLon0.09_PT079H.grib2 2026-05-03 09:08 1.7M
20260503T06Z_MSC_RDPS_CIN_Sfc_RLatLon0.09_PT079H.grib2 2026-05-03 09:08 1.2M
20260503T06Z_MSC_RDPS_CloudWater_EAtm_RLatLon0.09_PT079H.grib2 2026-05-03 09:08 220K
20260503T06Z_MSC_RDPS_ConvectivePrecip-Accum_Sfc_RLatLon0.09_PT079H.grib2 2026-05-03 09:08 1.3M
20260503T06Z_MSC_RDPS_DewPointDepression_AGL-2m_RLatLon0.09_PT079H.grib2 2026-05-03 09:08 409K
20260503T06Z_MSC_RDPS_DewPointDepression_IsbL-0001_RLatLon0.09_PT079H.grib2 2026-05-03 09:08 193
20260503T06Z_MSC_RDPS_DewPointDepression_IsbL-0005_RLatLon0.09_PT079H.grib2 2026-05-03 09:08 193
20260503T06Z_MSC_RDPS_DewPointDepression_IsbL-0010_RLatLon0.09_PT079H.grib2 2026-05-03 09:08 193
20260503T06Z_MSC_RDPS_DewPointDepression_IsbL-0020_RLatLon0.09_PT079H.grib2 2026-05-03 09:08 193
20260503T06Z_MSC_RDPS_DewPointDepression_IsbL-0030_RLatLon0.09_PT079H.grib2 2026-05-03 09:08 193
20260503T06Z_MSC_RDPS_DewPointDepression_IsbL-0050_RLatLon0.09_PT079H.grib2 2026-05-03 09:08 79K
20260503T06Z_MSC_RDPS_DewPointDepression_IsbL-0100_RLatLon0.09_PT079H.grib2 2026-05-03 09:08 110K
20260503T06Z_MSC_RDPS_DewPointDepression_IsbL-0150_RLatLon0.09_PT079H.grib2 2026-05-03 09:08 138K
20260503T06Z_MSC_RDPS_DewPointDepression_IsbL-0175_RLatLon0.09_PT079H.grib2 2026-05-03 09:08 181K
20260503T06Z_MSC_RDPS_DewPointDepression_IsbL-0200_RLatLon0.09_PT079H.grib2 2026-05-03 09:08 216K
20260503T06Z_MSC_RDPS_DewPointDepression_IsbL-0225_RLatLon0.09_PT079H.grib2 2026-05-03 09:08 253K
20260503T06Z_MSC_RDPS_DewPointDepression_IsbL-0250_RLatLon0.09_PT079H.grib2 2026-05-03 09:08 297K
20260503T06Z_MSC_RDPS_DewPointDepression_IsbL-0275_RLatLon0.09_PT079H.grib2 2026-05-03 09:08 307K
20260503T06Z_MSC_RDPS_DewPointDepression_IsbL-0300_RLatLon0.09_PT079H.grib2 2026-05-03 09:08 325K
20260503T06Z_MSC_RDPS_DewPointDepression_IsbL-0350_RLatLon0.09_PT079H.grib2 2026-05-03 09:08 332K
20260503T06Z_MSC_RDPS_DewPointDepression_IsbL-0400_RLatLon0.09_PT079H.grib2 2026-05-03 09:08 339K
20260503T06Z_MSC_RDPS_DewPointDepression_IsbL-0450_RLatLon0.09_PT079H.grib2 2026-05-03 09:08 341K
20260503T06Z_MSC_RDPS_DewPointDepression_IsbL-0500_RLatLon0.09_PT079H.grib2 2026-05-03 09:08 344K
20260503T06Z_MSC_RDPS_DewPointDepression_IsbL-0550_RLatLon0.09_PT079H.grib2 2026-05-03 09:08 354K
20260503T06Z_MSC_RDPS_DewPointDepression_IsbL-0600_RLatLon0.09_PT079H.grib2 2026-05-03 09:08 363K
20260503T06Z_MSC_RDPS_DewPointDepression_IsbL-0650_RLatLon0.09_PT079H.grib2 2026-05-03 09:08 368K
20260503T06Z_MSC_RDPS_DewPointDepression_IsbL-0700_RLatLon0.09_PT079H.grib2 2026-05-03 09:08 377K
20260503T06Z_MSC_RDPS_DewPointDepression_IsbL-0750_RLatLon0.09_PT079H.grib2 2026-05-03 09:08 395K
20260503T06Z_MSC_RDPS_DewPointDepression_IsbL-0800_RLatLon0.09_PT079H.grib2 2026-05-03 09:08 426K
20260503T06Z_MSC_RDPS_DewPointDepression_IsbL-0850_RLatLon0.09_PT079H.grib2 2026-05-03 09:08 480K
20260503T06Z_MSC_RDPS_DewPointDepression_IsbL-0875_RLatLon0.09_PT079H.grib2 2026-05-03 09:08 479K
20260503T06Z_MSC_RDPS_DewPointDepression_IsbL-0900_RLatLon0.09_PT079H.grib2 2026-05-03 09:08 465K
20260503T06Z_MSC_RDPS_DewPointDepression_IsbL-0925_RLatLon0.09_PT079H.grib2 2026-05-03 09:08 450K
20260503T06Z_MSC_RDPS_DewPointDepression_IsbL-0950_RLatLon0.09_PT079H.grib2 2026-05-03 09:08 439K
20260503T06Z_MSC_RDPS_DewPointDepression_IsbL-0970_RLatLon0.09_PT079H.grib2 2026-05-03 09:08 436K
20260503T06Z_MSC_RDPS_DewPointDepression_IsbL-0985_RLatLon0.09_PT079H.grib2 2026-05-03 09:08 435K
20260503T06Z_MSC_RDPS_DewPointDepression_IsbL-1000_RLatLon0.09_PT079H.grib2 2026-05-03 09:08 433K
20260503T06Z_MSC_RDPS_DewPointDepression_IsbL-1015_RLatLon0.09_PT079H.grib2 2026-05-03 09:08 423K
20260503T06Z_MSC_RDPS_DewPoint_AGL-2m_RLatLon0.09_PT079H.grib2 2026-05-03 09:08 397K
20260503T06Z_MSC_RDPS_DownwardLongwaveRadiationFlux-Accum_Sfc_RLatLon0.09_PT079H.grib2 2026-05-03 09:08 438K
20260503T06Z_MSC_RDPS_DownwardShortwaveRadiationFlux-Accum_NTAtm_RLatLon0.09_PT079H.grib2 2026-05-03 09:08 107K
20260503T06Z_MSC_RDPS_DownwardShortwaveRadiationFlux-Accum_Sfc_RLatLon0.09_PT079H.grib2 2026-05-03 09:08 637K
20260503T06Z_MSC_RDPS_FreezingRain-Accum1h_Sfc_RLatLon0.09_PT079H.grib2 2026-05-03 09:08 38K
20260503T06Z_MSC_RDPS_FreezingRain-Accum_Sfc_RLatLon0.09_PT079H.grib2 2026-05-03 09:08 223K
20260503T06Z_MSC_RDPS_GeopotentialHeight_IsbL-0001_RLatLon0.09_PT079H.grib2 2026-05-03 09:08 317K
20260503T06Z_MSC_RDPS_GeopotentialHeight_IsbL-0005_RLatLon0.09_PT079H.grib2 2026-05-03 09:08 305K
20260503T06Z_MSC_RDPS_GeopotentialHeight_IsbL-0010_RLatLon0.09_PT079H.grib2 2026-05-03 09:08 306K
20260503T06Z_MSC_RDPS_GeopotentialHeight_IsbL-0020_RLatLon0.09_PT079H.grib2 2026-05-03 09:08 306K
20260503T06Z_MSC_RDPS_GeopotentialHeight_IsbL-0030_RLatLon0.09_PT079H.grib2 2026-05-03 09:08 405K
20260503T06Z_MSC_RDPS_GeopotentialHeight_IsbL-0050_RLatLon0.09_PT079H.grib2 2026-05-03 09:08 308K
20260503T06Z_MSC_RDPS_GeopotentialHeight_IsbL-0100_RLatLon0.09_PT079H.grib2 2026-05-03 09:08 284K
20260503T06Z_MSC_RDPS_GeopotentialHeight_IsbL-0150_RLatLon0.09_PT079H.grib2 2026-05-03 09:08 227K
20260503T06Z_MSC_RDPS_GeopotentialHeight_IsbL-0175_RLatLon0.09_PT079H.grib2 2026-05-03 09:08 230K
20260503T06Z_MSC_RDPS_GeopotentialHeight_IsbL-0200_RLatLon0.09_PT079H.grib2 2026-05-03 09:08 233K
20260503T06Z_MSC_RDPS_GeopotentialHeight_IsbL-0225_RLatLon0.09_PT079H.grib2 2026-05-03 09:08 265K
20260503T06Z_MSC_RDPS_GeopotentialHeight_IsbL-0250_RLatLon0.09_PT079H.grib2 2026-05-03 09:08 237K
20260503T06Z_MSC_RDPS_GeopotentialHeight_IsbL-0275_RLatLon0.09_PT079H.grib2 2026-05-03 09:08 236K
20260503T06Z_MSC_RDPS_GeopotentialHeight_IsbL-0300_RLatLon0.09_PT079H.grib2 2026-05-03 09:08 235K
20260503T06Z_MSC_RDPS_GeopotentialHeight_IsbL-0350_RLatLon0.09_PT079H.grib2 2026-05-03 09:08 232K
20260503T06Z_MSC_RDPS_GeopotentialHeight_IsbL-0400_RLatLon0.09_PT079H.grib2 2026-05-03 09:08 228K
20260503T06Z_MSC_RDPS_GeopotentialHeight_IsbL-0450_RLatLon0.09_PT079H.grib2 2026-05-03 09:08 296K
20260503T06Z_MSC_RDPS_GeopotentialHeight_IsbL-0500_RLatLon0.09_PT079H.grib2 2026-05-03 09:08 293K
20260503T06Z_MSC_RDPS_GeopotentialHeight_IsbL-0550_RLatLon0.09_PT079H.grib2 2026-05-03 09:08 289K
20260503T06Z_MSC_RDPS_GeopotentialHeight_IsbL-0600_RLatLon0.09_PT079H.grib2 2026-05-03 09:08 285K
20260503T06Z_MSC_RDPS_GeopotentialHeight_IsbL-0650_RLatLon0.09_PT079H.grib2 2026-05-03 09:08 255K
20260503T06Z_MSC_RDPS_GeopotentialHeight_IsbL-0700_RLatLon0.09_PT079H.grib2 2026-05-03 09:08 336K
20260503T06Z_MSC_RDPS_GeopotentialHeight_IsbL-0750_RLatLon0.09_PT079H.grib2 2026-05-03 09:08 339K
20260503T06Z_MSC_RDPS_GeopotentialHeight_IsbL-0800_RLatLon0.09_PT079H.grib2 2026-05-03 09:08 348K
20260503T06Z_MSC_RDPS_GeopotentialHeight_IsbL-0850_RLatLon0.09_PT079H.grib2 2026-05-03 09:08 360K
20260503T06Z_MSC_RDPS_GeopotentialHeight_IsbL-0875_RLatLon0.09_PT079H.grib2 2026-05-03 09:08 397K
20260503T06Z_MSC_RDPS_GeopotentialHeight_IsbL-0900_RLatLon0.09_PT079H.grib2 2026-05-03 09:08 366K
20260503T06Z_MSC_RDPS_GeopotentialHeight_IsbL-0925_RLatLon0.09_PT079H.grib2 2026-05-03 09:08 370K
20260503T06Z_MSC_RDPS_GeopotentialHeight_IsbL-0950_RLatLon0.09_PT079H.grib2 2026-05-03 09:08 370K
20260503T06Z_MSC_RDPS_GeopotentialHeight_IsbL-0970_RLatLon0.09_PT079H.grib2 2026-05-03 09:08 375K
20260503T06Z_MSC_RDPS_GeopotentialHeight_IsbL-0985_RLatLon0.09_PT079H.grib2 2026-05-03 09:08 383K
20260503T06Z_MSC_RDPS_GeopotentialHeight_IsbL-1000_RLatLon0.09_PT079H.grib2 2026-05-03 09:08 395K
20260503T06Z_MSC_RDPS_GeopotentialHeight_IsbL-1015_RLatLon0.09_PT079H.grib2 2026-05-03 09:08 410K
20260503T06Z_MSC_RDPS_Humidex_Sfc_RLatLon0.09_PT079H.grib2 2026-05-03 09:08 2.4M
20260503T06Z_MSC_RDPS_IcePellets-Accum1h_Sfc_RLatLon0.09_PT079H.grib2 2026-05-03 09:08 8.2K
20260503T06Z_MSC_RDPS_IcePellets-Accum_Sfc_RLatLon0.09_PT079H.grib2 2026-05-03 09:08 48K
20260503T06Z_MSC_RDPS_KIndex_Sfc_RLatLon0.09_PT079H.grib2 2026-05-03 09:08 2.5M
20260503T06Z_MSC_RDPS_LatentHeatNetFlux_Sfc_RLatLon0.09_PT079H.grib2 2026-05-03 09:08 448K
20260503T06Z_MSC_RDPS_LiftedIndex-MU-VT_IsbL-0500_RLatLon0.09_PT079H.grib2 2026-05-03 09:08 2.4M
20260503T06Z_MSC_RDPS_NetLongwaveRadiationFlux-Accum_Sfc_RLatLon0.09_PT079H.grib2 2026-05-03 09:08 488K
20260503T06Z_MSC_RDPS_NetShortwaveRadiationFlux-Accum_Sfc_RLatLon0.09_PT079H.grib2 2026-05-03 09:08 637K
20260503T06Z_MSC_RDPS_PlanetaryBoundaryLayerHeight_Sfc_RLatLon0.09_PT079H.grib2 2026-05-03 09:08 1.1M
20260503T06Z_MSC_RDPS_Precip-Accum1h_Sfc_RLatLon0.09_PT079H.grib2 2026-05-03 09:08 1.3M
20260503T06Z_MSC_RDPS_Precip-Accum_Sfc_RLatLon0.09_PT079H.grib2 2026-05-03 09:08 2.3M
20260503T06Z_MSC_RDPS_PrecipRate_Sfc_RLatLon0.09_PT079H.grib2 2026-05-03 09:08 174K
20260503T06Z_MSC_RDPS_PrecipType-Instant_Sfc_RLatLon0.09_PT079H.grib2 2026-05-03 09:08 619K
20260503T06Z_MSC_RDPS_Pressure-Trend3h_Sfc_RLatLon0.09_PT079H.grib2 2026-05-03 09:08 1.2M
20260503T06Z_MSC_RDPS_Pressure_MSL_RLatLon0.09_PT079H.grib2 2026-05-03 09:08 293K
20260503T06Z_MSC_RDPS_Pressure_PVU-1.5_RLatLon0.09_PT079H.grib2 2026-05-03 09:08 2.5M
20260503T06Z_MSC_RDPS_Pressure_PVU-1_RLatLon0.09_PT079H.grib2 2026-05-03 09:08 2.4M
20260503T06Z_MSC_RDPS_Pressure_PVU-2_RLatLon0.09_PT079H.grib2 2026-05-03 09:08 2.4M
20260503T06Z_MSC_RDPS_Pressure_Sfc_RLatLon0.09_PT079H.grib2 2026-05-03 09:08 500K
20260503T06Z_MSC_RDPS_RadiativeTemp_Sfc_RLatLon0.09_PT079H.grib2 2026-05-03 09:08 302K
20260503T06Z_MSC_RDPS_Rain-Accum1h_Sfc_RLatLon0.09_PT079H.grib2 2026-05-03 09:08 661K
20260503T06Z_MSC_RDPS_Rain-Accum_Sfc_RLatLon0.09_PT079H.grib2 2026-05-03 09:08 1.9M
20260503T06Z_MSC_RDPS_RelativeHumidity_AGL-2m_RLatLon0.09_PT079H.grib2 2026-05-03 09:08 1.0M
20260503T06Z_MSC_RDPS_RelativeHumidity_IsbL-0010_RLatLon0.09_PT079H.grib2 2026-05-03 09:08 672K
20260503T06Z_MSC_RDPS_RelativeHumidity_IsbL-0020_RLatLon0.09_PT079H.grib2 2026-05-03 09:08 641K
20260503T06Z_MSC_RDPS_RelativeHumidity_IsbL-0030_RLatLon0.09_PT079H.grib2 2026-05-03 09:08 598K
20260503T06Z_MSC_RDPS_RelativeHumidity_IsbL-0050_RLatLon0.09_PT079H.grib2 2026-05-03 09:08 359K
20260503T06Z_MSC_RDPS_RelativeHumidity_IsbL-0100_RLatLon0.09_PT079H.grib2 2026-05-03 09:08 268K
20260503T06Z_MSC_RDPS_RelativeHumidity_IsbL-0150_RLatLon0.09_PT079H.grib2 2026-05-03 09:08 412K
20260503T06Z_MSC_RDPS_RelativeHumidity_IsbL-0175_RLatLon0.09_PT079H.grib2 2026-05-03 09:08 478K
20260503T06Z_MSC_RDPS_RelativeHumidity_IsbL-0200_RLatLon0.09_PT079H.grib2 2026-05-03 09:08 547K
20260503T06Z_MSC_RDPS_RelativeHumidity_IsbL-0225_RLatLon0.09_PT079H.grib2 2026-05-03 09:08 609K
20260503T06Z_MSC_RDPS_RelativeHumidity_IsbL-0250_RLatLon0.09_PT079H.grib2 2026-05-03 09:08 677K
20260503T06Z_MSC_RDPS_RelativeHumidity_IsbL-0275_RLatLon0.09_PT079H.grib2 2026-05-03 09:08 708K
20260503T06Z_MSC_RDPS_RelativeHumidity_IsbL-0300_RLatLon0.09_PT079H.grib2 2026-05-03 09:08 755K
20260503T06Z_MSC_RDPS_RelativeHumidity_IsbL-0350_RLatLon0.09_PT079H.grib2 2026-05-03 09:08 780K
20260503T06Z_MSC_RDPS_RelativeHumidity_IsbL-0400_RLatLon0.09_PT079H.grib2 2026-05-03 09:08 790K
20260503T06Z_MSC_RDPS_RelativeHumidity_IsbL-0450_RLatLon0.09_PT079H.grib2 2026-05-03 09:08 791K
20260503T06Z_MSC_RDPS_RelativeHumidity_IsbL-0500_RLatLon0.09_PT079H.grib2 2026-05-03 09:08 791K
20260503T06Z_MSC_RDPS_RelativeHumidity_IsbL-0550_RLatLon0.09_PT079H.grib2 2026-05-03 09:08 804K
20260503T06Z_MSC_RDPS_RelativeHumidity_IsbL-0600_RLatLon0.09_PT079H.grib2 2026-05-03 09:08 830K
20260503T06Z_MSC_RDPS_RelativeHumidity_IsbL-0650_RLatLon0.09_PT079H.grib2 2026-05-03 09:08 833K
20260503T06Z_MSC_RDPS_RelativeHumidity_IsbL-0700_RLatLon0.09_PT079H.grib2 2026-05-03 09:08 857K
20260503T06Z_MSC_RDPS_RelativeHumidity_IsbL-0750_RLatLon0.09_PT079H.grib2 2026-05-03 09:08 894K
20260503T06Z_MSC_RDPS_RelativeHumidity_IsbL-0800_RLatLon0.09_PT079H.grib2 2026-05-03 09:08 962K
20260503T06Z_MSC_RDPS_RelativeHumidity_IsbL-0850_RLatLon0.09_PT079H.grib2 2026-05-03 09:08 1.0M
20260503T06Z_MSC_RDPS_RelativeHumidity_IsbL-0875_RLatLon0.09_PT079H.grib2 2026-05-03 09:08 1.1M
20260503T06Z_MSC_RDPS_RelativeHumidity_IsbL-0900_RLatLon0.09_PT079H.grib2 2026-05-03 09:08 1.1M
20260503T06Z_MSC_RDPS_RelativeHumidity_IsbL-0925_RLatLon0.09_PT079H.grib2 2026-05-03 09:08 1.1M
20260503T06Z_MSC_RDPS_RelativeHumidity_IsbL-0950_RLatLon0.09_PT079H.grib2 2026-05-03 09:08 1.1M
20260503T06Z_MSC_RDPS_RelativeHumidity_IsbL-0970_RLatLon0.09_PT079H.grib2 2026-05-03 09:08 1.1M
20260503T06Z_MSC_RDPS_RelativeHumidity_IsbL-0985_RLatLon0.09_PT079H.grib2 2026-05-03 09:08 1.1M
20260503T06Z_MSC_RDPS_RelativeHumidity_IsbL-1000_RLatLon0.09_PT079H.grib2 2026-05-03 09:08 1.0M
20260503T06Z_MSC_RDPS_RelativeHumidity_IsbL-1015_RLatLon0.09_PT079H.grib2 2026-05-03 09:08 1.0M
20260503T06Z_MSC_RDPS_Runoff-Accum_Sfc_RLatLon0.09_PT079H.grib2 2026-05-03 09:08 69K
20260503T06Z_MSC_RDPS_SWEATIndex_Sfc_RLatLon0.09_PT079H.grib2 2026-05-03 09:08 2.4M
20260503T06Z_MSC_RDPS_SeeingIndex_EAtm_RLatLon0.09_PT079H.grib2 2026-05-03 09:08 1.0M
20260503T06Z_MSC_RDPS_SensibleHeatNetFlux_Sfc_RLatLon0.09_PT079H.grib2 2026-05-03 09:08 323K
20260503T06Z_MSC_RDPS_ShowalterIndex_IsbL-0500_RLatLon0.09_PT079H.grib2 2026-05-03 09:08 2.6M
20260503T06Z_MSC_RDPS_SkyTransparencyIndex_EAtm_RLatLon0.09_PT079H.grib2 2026-05-03 09:08 705K
20260503T06Z_MSC_RDPS_Snow-Accum1h_Sfc_RLatLon0.09_PT079H.grib2 2026-05-03 09:08 506K
20260503T06Z_MSC_RDPS_Snow-Accum_Sfc_RLatLon0.09_PT079H.grib2 2026-05-03 09:08 811K
20260503T06Z_MSC_RDPS_SnowDensity_Sfc_RLatLon0.09_PT079H.grib2 2026-05-03 09:08 175K
20260503T06Z_MSC_RDPS_SnowDepth_Sfc_RLatLon0.09_PT079H.grib2 2026-05-03 09:08 656K
20260503T06Z_MSC_RDPS_SoilTemp_DBS-0to10cm_RLatLon0.09_PT079H.grib2 2026-05-03 09:08 242K
20260503T06Z_MSC_RDPS_SoilTemp_Sfc_RLatLon0.09_PT079H.grib2 2026-05-03 09:08 275K
20260503T06Z_MSC_RDPS_SoilVolumetricIceContent_Sfc_RLatLon0.09_PT079H.grib2 2026-05-03 09:08 153K
20260503T06Z_MSC_RDPS_SoilVolumetricWaterContent_DBS-0to10cm_RLatLon0.09_PT079H.grib2 2026-05-03 09:08 280K
20260503T06Z_MSC_RDPS_SoilVolumetricWaterContent_DBS-0to1cm_RLatLon0.09_PT079H.grib2 2026-05-03 09:08 343K
20260503T06Z_MSC_RDPS_SpecificHumidity_AGL-120m_RLatLon0.09_PT079H.grib2 2026-05-03 09:08 499K
20260503T06Z_MSC_RDPS_SpecificHumidity_AGL-2m_RLatLon0.09_PT079H.grib2 2026-05-03 09:08 665K
20260503T06Z_MSC_RDPS_SpecificHumidity_AGL-40m_RLatLon0.09_PT079H.grib2 2026-05-03 09:08 504K
20260503T06Z_MSC_RDPS_SpecificHumidity_AGL-80m_RLatLon0.09_PT079H.grib2 2026-05-03 09:08 501K
20260503T06Z_MSC_RDPS_SpecificHumidity_IsbL-0001_RLatLon0.09_PT079H.grib2 2026-05-03 09:08 377K
20260503T06Z_MSC_RDPS_SpecificHumidity_IsbL-0005_RLatLon0.09_PT079H.grib2 2026-05-03 09:08 359K
20260503T06Z_MSC_RDPS_SpecificHumidity_IsbL-0010_RLatLon0.09_PT079H.grib2 2026-05-03 09:08 394K
20260503T06Z_MSC_RDPS_SpecificHumidity_IsbL-0020_RLatLon0.09_PT079H.grib2 2026-05-03 09:08 372K
20260503T06Z_MSC_RDPS_SpecificHumidity_IsbL-0030_RLatLon0.09_PT079H.grib2 2026-05-03 09:08 361K
20260503T06Z_MSC_RDPS_SpecificHumidity_IsbL-0050_RLatLon0.09_PT079H.grib2 2026-05-03 09:08 438K
20260503T06Z_MSC_RDPS_SpecificHumidity_IsbL-0100_RLatLon0.09_PT079H.grib2 2026-05-03 09:08 412K
20260503T06Z_MSC_RDPS_SpecificHumidity_IsbL-0150_RLatLon0.09_PT079H.grib2 2026-05-03 09:08 453K
20260503T06Z_MSC_RDPS_SpecificHumidity_IsbL-0175_RLatLon0.09_PT079H.grib2 2026-05-03 09:08 441K
20260503T06Z_MSC_RDPS_SpecificHumidity_IsbL-0200_RLatLon0.09_PT079H.grib2 2026-05-03 09:08 449K
20260503T06Z_MSC_RDPS_SpecificHumidity_IsbL-0225_RLatLon0.09_PT079H.grib2 2026-05-03 09:08 445K
20260503T06Z_MSC_RDPS_SpecificHumidity_IsbL-0250_RLatLon0.09_PT079H.grib2 2026-05-03 09:08 551K
20260503T06Z_MSC_RDPS_SpecificHumidity_IsbL-0275_RLatLon0.09_PT079H.grib2 2026-05-03 09:08 470K
20260503T06Z_MSC_RDPS_SpecificHumidity_IsbL-0300_RLatLon0.09_PT079H.grib2 2026-05-03 09:08 446K
20260503T06Z_MSC_RDPS_SpecificHumidity_IsbL-0350_RLatLon0.09_PT079H.grib2 2026-05-03 09:08 569K
20260503T06Z_MSC_RDPS_SpecificHumidity_IsbL-0400_RLatLon0.09_PT079H.grib2 2026-05-03 09:08 521K
20260503T06Z_MSC_RDPS_SpecificHumidity_IsbL-0450_RLatLon0.09_PT079H.grib2 2026-05-03 09:08 568K
20260503T06Z_MSC_RDPS_SpecificHumidity_IsbL-0500_RLatLon0.09_PT079H.grib2 2026-05-03 09:08 499K
20260503T06Z_MSC_RDPS_SpecificHumidity_IsbL-0550_RLatLon0.09_PT079H.grib2 2026-05-03 09:08 569K
20260503T06Z_MSC_RDPS_SpecificHumidity_IsbL-0600_RLatLon0.09_PT079H.grib2 2026-05-03 09:08 619K
20260503T06Z_MSC_RDPS_SpecificHumidity_IsbL-0650_RLatLon0.09_PT079H.grib2 2026-05-03 09:08 535K
20260503T06Z_MSC_RDPS_SpecificHumidity_IsbL-0700_RLatLon0.09_PT079H.grib2 2026-05-03 09:08 576K
20260503T06Z_MSC_RDPS_SpecificHumidity_IsbL-0750_RLatLon0.09_PT079H.grib2 2026-05-03 09:08 626K
20260503T06Z_MSC_RDPS_SpecificHumidity_IsbL-0800_RLatLon0.09_PT079H.grib2 2026-05-03 09:08 709K
20260503T06Z_MSC_RDPS_SpecificHumidity_IsbL-0850_RLatLon0.09_PT079H.grib2 2026-05-03 09:08 807K
20260503T06Z_MSC_RDPS_SpecificHumidity_IsbL-0875_RLatLon0.09_PT079H.grib2 2026-05-03 09:08 835K
20260503T06Z_MSC_RDPS_SpecificHumidity_IsbL-0900_RLatLon0.09_PT079H.grib2 2026-05-03 09:08 843K
20260503T06Z_MSC_RDPS_SpecificHumidity_IsbL-0925_RLatLon0.09_PT079H.grib2 2026-05-03 09:08 844K
20260503T06Z_MSC_RDPS_SpecificHumidity_IsbL-0950_RLatLon0.09_PT079H.grib2 2026-05-03 09:08 843K
20260503T06Z_MSC_RDPS_SpecificHumidity_IsbL-0970_RLatLon0.09_PT079H.grib2 2026-05-03 09:08 698K
20260503T06Z_MSC_RDPS_SpecificHumidity_IsbL-0985_RLatLon0.09_PT079H.grib2 2026-05-03 09:08 694K
20260503T06Z_MSC_RDPS_SpecificHumidity_IsbL-1000_RLatLon0.09_PT079H.grib2 2026-05-03 09:08 691K
20260503T06Z_MSC_RDPS_SpecificHumidity_IsbL-1015_RLatLon0.09_PT079H.grib2 2026-05-03 09:08 681K
20260503T06Z_MSC_RDPS_SpecificHumidity_Sfc_RLatLon0.09_PT079H.grib2 2026-05-03 09:08 302K
20260503T06Z_MSC_RDPS_StormRelativeHelicity_EtaL-10000_RLatLon0.09_PT079H.grib2 2026-05-03 09:08 1.1M
20260503T06Z_MSC_RDPS_StormSeverityIndex_EtaL-10000_RLatLon0.09_PT079H.grib2 2026-05-03 09:08 1.2M
20260503T06Z_MSC_RDPS_Thickness_IsbL-0850to0700_RLatLon0.09_PT079H.grib2 2026-05-03 09:08 176K
20260503T06Z_MSC_RDPS_Thickness_IsbL-1000to0500_RLatLon0.09_PT079H.grib2 2026-05-03 09:08 196K
20260503T06Z_MSC_RDPS_Thickness_IsbL-1000to0850_RLatLon0.09_PT079H.grib2 2026-05-03 09:08 260K
20260503T06Z_MSC_RDPS_TotalCloudCover_Sfc_RLatLon0.09_PT079H.grib2 2026-05-03 09:08 667K
20260503T06Z_MSC_RDPS_TotalTotalsIndex_Sfc_RLatLon0.09_PT079H.grib2 2026-05-03 09:08 2.5M
20260503T06Z_MSC_RDPS_UVIndex-ClearSky_Sfc_RLatLon0.09_PT079H.grib2 2026-05-03 09:08 196K
20260503T06Z_MSC_RDPS_UVIndex_Sfc_RLatLon0.09_PT079H.grib2 2026-05-03 09:08 438K
20260503T06Z_MSC_RDPS_UpwardLongwaveRadiationFlux_NTAtm_RLatLon0.09_PT079H.grib2 2026-05-03 09:08 482K
20260503T06Z_MSC_RDPS_UpwardShortwaveRadiationFlux_NTAtm_RLatLon0.09_PT079H.grib2 2026-05-03 09:08 371K
20260503T06Z_MSC_RDPS_VerticalVelocity_IsbL-0250_RLatLon0.09_PT079H.grib2 2026-05-03 09:08 552K
20260503T06Z_MSC_RDPS_VerticalVelocity_IsbL-0500_RLatLon0.09_PT079H.grib2 2026-05-03 09:08 551K
20260503T06Z_MSC_RDPS_VerticalVelocity_IsbL-0700_RLatLon0.09_PT079H.grib2 2026-05-03 09:08 593K
20260503T06Z_MSC_RDPS_VerticalVelocity_IsbL-0850_RLatLon0.09_PT079H.grib2 2026-05-03 09:08 695K
20260503T06Z_MSC_RDPS_VerticalWindShear_EtaL-6500_RLatLon0.09_PT079H.grib2 2026-05-03 09:08 1.2M
20260503T06Z_MSC_RDPS_WindChill_Sfc_RLatLon0.09_PT079H.grib2 2026-05-03 09:08 1.2M
20260503T06Z_MSC_RDPS_WindDir_AGL-10m_RLatLon0.09_PT079H.grib2 2026-05-03 09:08 1.0M
20260503T06Z_MSC_RDPS_WindDir_AGL-120m_RLatLon0.09_PT079H.grib2 2026-05-03 09:08 611K
20260503T06Z_MSC_RDPS_WindDir_AGL-40m_RLatLon0.09_PT079H.grib2 2026-05-03 09:08 639K
20260503T06Z_MSC_RDPS_WindDir_AGL-80m_RLatLon0.09_PT079H.grib2 2026-05-03 09:08 622K
20260503T06Z_MSC_RDPS_WindDir_IsbL-0001_RLatLon0.09_PT079H.grib2 2026-05-03 09:08 312K
20260503T06Z_MSC_RDPS_WindDir_IsbL-0005_RLatLon0.09_PT079H.grib2 2026-05-03 09:08 388K
20260503T06Z_MSC_RDPS_WindDir_IsbL-0010_RLatLon0.09_PT079H.grib2 2026-05-03 09:08 384K
20260503T06Z_MSC_RDPS_WindDir_IsbL-0020_RLatLon0.09_PT079H.grib2 2026-05-03 09:08 407K
20260503T06Z_MSC_RDPS_WindDir_IsbL-0030_RLatLon0.09_PT079H.grib2 2026-05-03 09:08 413K
20260503T06Z_MSC_RDPS_WindDir_IsbL-0050_RLatLon0.09_PT079H.grib2 2026-05-03 09:08 438K
20260503T06Z_MSC_RDPS_WindDir_IsbL-0100_RLatLon0.09_PT079H.grib2 2026-05-03 09:08 409K
20260503T06Z_MSC_RDPS_WindDir_IsbL-0150_RLatLon0.09_PT079H.grib2 2026-05-03 09:08 409K
20260503T06Z_MSC_RDPS_WindDir_IsbL-0175_RLatLon0.09_PT079H.grib2 2026-05-03 09:08 434K
20260503T06Z_MSC_RDPS_WindDir_IsbL-0200_RLatLon0.09_PT079H.grib2 2026-05-03 09:08 448K
20260503T06Z_MSC_RDPS_WindDir_IsbL-0225_RLatLon0.09_PT079H.grib2 2026-05-03 09:08 447K
20260503T06Z_MSC_RDPS_WindDir_IsbL-0250_RLatLon0.09_PT079H.grib2 2026-05-03 09:08 448K
20260503T06Z_MSC_RDPS_WindDir_IsbL-0275_RLatLon0.09_PT079H.grib2 2026-05-03 09:08 468K
20260503T06Z_MSC_RDPS_WindDir_IsbL-0300_RLatLon0.09_PT079H.grib2 2026-05-03 09:08 469K
20260503T06Z_MSC_RDPS_WindDir_IsbL-0350_RLatLon0.09_PT079H.grib2 2026-05-03 09:08 499K
20260503T06Z_MSC_RDPS_WindDir_IsbL-0400_RLatLon0.09_PT079H.grib2 2026-05-03 09:08 522K
20260503T06Z_MSC_RDPS_WindDir_IsbL-0450_RLatLon0.09_PT079H.grib2 2026-05-03 09:08 533K
20260503T06Z_MSC_RDPS_WindDir_IsbL-0500_RLatLon0.09_PT079H.grib2 2026-05-03 09:08 541K
20260503T06Z_MSC_RDPS_WindDir_IsbL-0550_RLatLon0.09_PT079H.grib2 2026-05-03 09:08 548K
20260503T06Z_MSC_RDPS_WindDir_IsbL-0600_RLatLon0.09_PT079H.grib2 2026-05-03 09:08 573K
20260503T06Z_MSC_RDPS_WindDir_IsbL-0650_RLatLon0.09_PT079H.grib2 2026-05-03 09:08 618K
20260503T06Z_MSC_RDPS_WindDir_IsbL-0700_RLatLon0.09_PT079H.grib2 2026-05-03 09:08 663K
20260503T06Z_MSC_RDPS_WindDir_IsbL-0750_RLatLon0.09_PT079H.grib2 2026-05-03 09:08 706K
20260503T06Z_MSC_RDPS_WindDir_IsbL-0800_RLatLon0.09_PT079H.grib2 2026-05-03 09:08 772K
20260503T06Z_MSC_RDPS_WindDir_IsbL-0850_RLatLon0.09_PT079H.grib2 2026-05-03 09:08 856K
20260503T06Z_MSC_RDPS_WindDir_IsbL-0875_RLatLon0.09_PT079H.grib2 2026-05-03 09:08 886K
20260503T06Z_MSC_RDPS_WindDir_IsbL-0900_RLatLon0.09_PT079H.grib2 2026-05-03 09:08 905K
20260503T06Z_MSC_RDPS_WindDir_IsbL-0925_RLatLon0.09_PT079H.grib2 2026-05-03 09:08 919K
20260503T06Z_MSC_RDPS_WindDir_IsbL-0950_RLatLon0.09_PT079H.grib2 2026-05-03 09:08 920K
20260503T06Z_MSC_RDPS_WindDir_IsbL-0970_RLatLon0.09_PT079H.grib2 2026-05-03 09:08 923K
20260503T06Z_MSC_RDPS_WindDir_IsbL-0985_RLatLon0.09_PT079H.grib2 2026-05-03 09:08 932K
20260503T06Z_MSC_RDPS_WindDir_IsbL-1000_RLatLon0.09_PT079H.grib2 2026-05-03 09:08 946K
20260503T06Z_MSC_RDPS_WindDir_IsbL-1015_RLatLon0.09_PT079H.grib2 2026-05-03 09:08 964K
20260503T06Z_MSC_RDPS_WindGust-Max_AGL-10m_RLatLon0.09_PT079H.grib2 2026-05-03 09:08 1.0M
20260503T06Z_MSC_RDPS_WindGust-Min_AGL-10m_RLatLon0.09_PT079H.grib2 2026-05-03 09:08 1.0M
20260503T06Z_MSC_RDPS_WindGust_AGL-10m_RLatLon0.09_PT079H.grib2 2026-05-03 09:08 1.0M
20260503T06Z_MSC_RDPS_WindSpeed_AGL-10m_RLatLon0.09_PT079H.grib2 2026-05-03 09:08 852K
20260503T06Z_MSC_RDPS_WindSpeed_AGL-120m_RLatLon0.09_PT079H.grib2 2026-05-03 09:08 551K
20260503T06Z_MSC_RDPS_WindSpeed_AGL-40m_RLatLon0.09_PT079H.grib2 2026-05-03 09:08 683K
20260503T06Z_MSC_RDPS_WindSpeed_AGL-80m_RLatLon0.09_PT079H.grib2 2026-05-03 09:08 681K
20260503T06Z_MSC_RDPS_WindSpeed_IsbL-0001_RLatLon0.09_PT079H.grib2 2026-05-03 09:08 333K
20260503T06Z_MSC_RDPS_WindSpeed_IsbL-0005_RLatLon0.09_PT079H.grib2 2026-05-03 09:08 291K
20260503T06Z_MSC_RDPS_WindSpeed_IsbL-0010_RLatLon0.09_PT079H.grib2 2026-05-03 09:08 395K
20260503T06Z_MSC_RDPS_WindSpeed_IsbL-0020_RLatLon0.09_PT079H.grib2 2026-05-03 09:08 418K
20260503T06Z_MSC_RDPS_WindSpeed_IsbL-0030_RLatLon0.09_PT079H.grib2 2026-05-03 09:08 318K
20260503T06Z_MSC_RDPS_WindSpeed_IsbL-0050_RLatLon0.09_PT079H.grib2 2026-05-03 09:08 349K
20260503T06Z_MSC_RDPS_WindSpeed_IsbL-0100_RLatLon0.09_PT079H.grib2 2026-05-03 09:08 472K
20260503T06Z_MSC_RDPS_WindSpeed_IsbL-0150_RLatLon0.09_PT079H.grib2 2026-05-03 09:08 374K
20260503T06Z_MSC_RDPS_WindSpeed_IsbL-0175_RLatLon0.09_PT079H.grib2 2026-05-03 09:08 422K
20260503T06Z_MSC_RDPS_WindSpeed_IsbL-0200_RLatLon0.09_PT079H.grib2 2026-05-03 09:08 438K
20260503T06Z_MSC_RDPS_WindSpeed_IsbL-0225_RLatLon0.09_PT079H.grib2 2026-05-03 09:08 440K
20260503T06Z_MSC_RDPS_WindSpeed_IsbL-0250_RLatLon0.09_PT079H.grib2 2026-05-03 09:08 442K
20260503T06Z_MSC_RDPS_WindSpeed_IsbL-0275_RLatLon0.09_PT079H.grib2 2026-05-03 09:08 462K
20260503T06Z_MSC_RDPS_WindSpeed_IsbL-0300_RLatLon0.09_PT079H.grib2 2026-05-03 09:08 463K
20260503T06Z_MSC_RDPS_WindSpeed_IsbL-0350_RLatLon0.09_PT079H.grib2 2026-05-03 09:08 479K
20260503T06Z_MSC_RDPS_WindSpeed_IsbL-0400_RLatLon0.09_PT079H.grib2 2026-05-03 09:08 483K
20260503T06Z_MSC_RDPS_WindSpeed_IsbL-0450_RLatLon0.09_PT079H.grib2 2026-05-03 09:08 462K
20260503T06Z_MSC_RDPS_WindSpeed_IsbL-0500_RLatLon0.09_PT079H.grib2 2026-05-03 09:08 460K
20260503T06Z_MSC_RDPS_WindSpeed_IsbL-0550_RLatLon0.09_PT079H.grib2 2026-05-03 09:08 577K
20260503T06Z_MSC_RDPS_WindSpeed_IsbL-0600_RLatLon0.09_PT079H.grib2 2026-05-03 09:08 584K
20260503T06Z_MSC_RDPS_WindSpeed_IsbL-0650_RLatLon0.09_PT079H.grib2 2026-05-03 09:08 605K
20260503T06Z_MSC_RDPS_WindSpeed_IsbL-0700_RLatLon0.09_PT079H.grib2 2026-05-03 09:08 671K
20260503T06Z_MSC_RDPS_WindSpeed_IsbL-0750_RLatLon0.09_PT079H.grib2 2026-05-03 09:08 701K
20260503T06Z_MSC_RDPS_WindSpeed_IsbL-0800_RLatLon0.09_PT079H.grib2 2026-05-03 09:08 742K
20260503T06Z_MSC_RDPS_WindSpeed_IsbL-0850_RLatLon0.09_PT079H.grib2 2026-05-03 09:08 825K
20260503T06Z_MSC_RDPS_WindSpeed_IsbL-0875_RLatLon0.09_PT079H.grib2 2026-05-03 09:08 850K
20260503T06Z_MSC_RDPS_WindSpeed_IsbL-0900_RLatLon0.09_PT079H.grib2 2026-05-03 09:08 865K
20260503T06Z_MSC_RDPS_WindSpeed_IsbL-0925_RLatLon0.09_PT079H.grib2 2026-05-03 09:08 880K
20260503T06Z_MSC_RDPS_WindSpeed_IsbL-0950_RLatLon0.09_PT079H.grib2 2026-05-03 09:08 879K
20260503T06Z_MSC_RDPS_WindSpeed_IsbL-0970_RLatLon0.09_PT079H.grib2 2026-05-03 09:08 872K
20260503T06Z_MSC_RDPS_WindSpeed_IsbL-0985_RLatLon0.09_PT079H.grib2 2026-05-03 09:08 867K
20260503T06Z_MSC_RDPS_WindSpeed_IsbL-1000_RLatLon0.09_PT079H.grib2 2026-05-03 09:08 862K
20260503T06Z_MSC_RDPS_WindSpeed_IsbL-1015_RLatLon0.09_PT079H.grib2 2026-05-03 09:08 852K
20260503T06Z_MSC_RDPS_WindU_AGL-10m_RLatLon0.09_PT079H.grib2 2026-05-03 09:08 437K
20260503T06Z_MSC_RDPS_WindU_AGL-120m_RLatLon0.09_PT079H.grib2 2026-05-03 09:08 544K
20260503T06Z_MSC_RDPS_WindU_AGL-40m_RLatLon0.09_PT079H.grib2 2026-05-03 09:08 546K
20260503T06Z_MSC_RDPS_WindU_AGL-80m_RLatLon0.09_PT079H.grib2 2026-05-03 09:08 544K
20260503T06Z_MSC_RDPS_WindU_IsbL-0001_RLatLon0.09_PT079H.grib2 2026-05-03 09:08 245K
20260503T06Z_MSC_RDPS_WindU_IsbL-0005_RLatLon0.09_PT079H.grib2 2026-05-03 09:08 324K
20260503T06Z_MSC_RDPS_WindU_IsbL-0010_RLatLon0.09_PT079H.grib2 2026-05-03 09:08 293K
20260503T06Z_MSC_RDPS_WindU_IsbL-0020_RLatLon0.09_PT079H.grib2 2026-05-03 09:08 312K
20260503T06Z_MSC_RDPS_WindU_IsbL-0030_RLatLon0.09_PT079H.grib2 2026-05-03 09:08 349K
20260503T06Z_MSC_RDPS_WindU_IsbL-0050_RLatLon0.09_PT079H.grib2 2026-05-03 09:08 378K
20260503T06Z_MSC_RDPS_WindU_IsbL-0100_RLatLon0.09_PT079H.grib2 2026-05-03 09:08 427K
20260503T06Z_MSC_RDPS_WindU_IsbL-0150_RLatLon0.09_PT079H.grib2 2026-05-03 09:08 391K
20260503T06Z_MSC_RDPS_WindU_IsbL-0175_RLatLon0.09_PT079H.grib2 2026-05-03 09:08 416K
20260503T06Z_MSC_RDPS_WindU_IsbL-0200_RLatLon0.09_PT079H.grib2 2026-05-03 09:08 333K
20260503T06Z_MSC_RDPS_WindU_IsbL-0225_RLatLon0.09_PT079H.grib2 2026-05-03 09:08 334K
20260503T06Z_MSC_RDPS_WindU_IsbL-0250_RLatLon0.09_PT079H.grib2 2026-05-03 09:08 334K
20260503T06Z_MSC_RDPS_WindU_IsbL-0275_RLatLon0.09_PT079H.grib2 2026-05-03 09:08 351K
20260503T06Z_MSC_RDPS_WindU_IsbL-0300_RLatLon0.09_PT079H.grib2 2026-05-03 09:08 350K
20260503T06Z_MSC_RDPS_WindU_IsbL-0350_RLatLon0.09_PT079H.grib2 2026-05-03 09:08 362K
20260503T06Z_MSC_RDPS_WindU_IsbL-0400_RLatLon0.09_PT079H.grib2 2026-05-03 09:08 469K
20260503T06Z_MSC_RDPS_WindU_IsbL-0450_RLatLon0.09_PT079H.grib2 2026-05-03 09:08 466K
20260503T06Z_MSC_RDPS_WindU_IsbL-0500_RLatLon0.09_PT079H.grib2 2026-05-03 09:08 465K
20260503T06Z_MSC_RDPS_WindU_IsbL-0550_RLatLon0.09_PT079H.grib2 2026-05-03 09:08 464K
20260503T06Z_MSC_RDPS_WindU_IsbL-0600_RLatLon0.09_PT079H.grib2 2026-05-03 09:08 472K
20260503T06Z_MSC_RDPS_WindU_IsbL-0650_RLatLon0.09_PT079H.grib2 2026-05-03 09:08 490K
20260503T06Z_MSC_RDPS_WindU_IsbL-0700_RLatLon0.09_PT079H.grib2 2026-05-03 09:08 510K
20260503T06Z_MSC_RDPS_WindU_IsbL-0750_RLatLon0.09_PT079H.grib2 2026-05-03 09:08 522K
20260503T06Z_MSC_RDPS_WindU_IsbL-0800_RLatLon0.09_PT079H.grib2 2026-05-03 09:08 566K
20260503T06Z_MSC_RDPS_WindU_IsbL-0850_RLatLon0.09_PT079H.grib2 2026-05-03 09:08 632K
20260503T06Z_MSC_RDPS_WindU_IsbL-0875_RLatLon0.09_PT079H.grib2 2026-05-03 09:08 654K
20260503T06Z_MSC_RDPS_WindU_IsbL-0900_RLatLon0.09_PT079H.grib2 2026-05-03 09:08 665K
20260503T06Z_MSC_RDPS_WindU_IsbL-0925_RLatLon0.09_PT079H.grib2 2026-05-03 09:08 675K
20260503T06Z_MSC_RDPS_WindU_IsbL-0950_RLatLon0.09_PT079H.grib2 2026-05-03 09:08 669K
20260503T06Z_MSC_RDPS_WindU_IsbL-0970_RLatLon0.09_PT079H.grib2 2026-05-03 09:08 663K
20260503T06Z_MSC_RDPS_WindU_IsbL-0985_RLatLon0.09_PT079H.grib2 2026-05-03 09:08 800K
20260503T06Z_MSC_RDPS_WindU_IsbL-1000_RLatLon0.09_PT079H.grib2 2026-05-03 09:08 796K
20260503T06Z_MSC_RDPS_WindU_IsbL-1015_RLatLon0.09_PT079H.grib2 2026-05-03 09:08 836K
20260503T06Z_MSC_RDPS_WindV_AGL-10m_RLatLon0.09_PT079H.grib2 2026-05-03 09:08 438K
20260503T06Z_MSC_RDPS_WindV_AGL-120m_RLatLon0.09_PT079H.grib2 2026-05-03 09:08 543K
20260503T06Z_MSC_RDPS_WindV_AGL-40m_RLatLon0.09_PT079H.grib2 2026-05-03 09:08 545K
20260503T06Z_MSC_RDPS_WindV_AGL-80m_RLatLon0.09_PT079H.grib2 2026-05-03 09:08 544K
20260503T06Z_MSC_RDPS_WindV_IsbL-0001_RLatLon0.09_PT079H.grib2 2026-05-03 09:08 248K
20260503T06Z_MSC_RDPS_WindV_IsbL-0005_RLatLon0.09_PT079H.grib2 2026-05-03 09:08 285K
20260503T06Z_MSC_RDPS_WindV_IsbL-0010_RLatLon0.09_PT079H.grib2 2026-05-03 09:08 296K
20260503T06Z_MSC_RDPS_WindV_IsbL-0020_RLatLon0.09_PT079H.grib2 2026-05-03 09:08 316K
20260503T06Z_MSC_RDPS_WindV_IsbL-0030_RLatLon0.09_PT079H.grib2 2026-05-03 09:08 313K
20260503T06Z_MSC_RDPS_WindV_IsbL-0050_RLatLon0.09_PT079H.grib2 2026-05-03 09:08 343K
20260503T06Z_MSC_RDPS_WindV_IsbL-0100_RLatLon0.09_PT079H.grib2 2026-05-03 09:08 328K
20260503T06Z_MSC_RDPS_WindV_IsbL-0150_RLatLon0.09_PT079H.grib2 2026-05-03 09:08 388K
20260503T06Z_MSC_RDPS_WindV_IsbL-0175_RLatLon0.09_PT079H.grib2 2026-05-03 09:08 412K
20260503T06Z_MSC_RDPS_WindV_IsbL-0200_RLatLon0.09_PT079H.grib2 2026-05-03 09:08 331K
20260503T06Z_MSC_RDPS_WindV_IsbL-0225_RLatLon0.09_PT079H.grib2 2026-05-03 09:08 333K
20260503T06Z_MSC_RDPS_WindV_IsbL-0250_RLatLon0.09_PT079H.grib2 2026-05-03 09:08 335K
20260503T06Z_MSC_RDPS_WindV_IsbL-0275_RLatLon0.09_PT079H.grib2 2026-05-03 09:08 351K
20260503T06Z_MSC_RDPS_WindV_IsbL-0300_RLatLon0.09_PT079H.grib2 2026-05-03 09:08 375K
20260503T06Z_MSC_RDPS_WindV_IsbL-0350_RLatLon0.09_PT079H.grib2 2026-05-03 09:08 385K
20260503T06Z_MSC_RDPS_WindV_IsbL-0400_RLatLon0.09_PT079H.grib2 2026-05-03 09:08 363K
20260503T06Z_MSC_RDPS_WindV_IsbL-0450_RLatLon0.09_PT079H.grib2 2026-05-03 09:08 363K
20260503T06Z_MSC_RDPS_WindV_IsbL-0500_RLatLon0.09_PT079H.grib2 2026-05-03 09:08 464K
20260503T06Z_MSC_RDPS_WindV_IsbL-0550_RLatLon0.09_PT079H.grib2 2026-05-03 09:08 462K
20260503T06Z_MSC_RDPS_WindV_IsbL-0600_RLatLon0.09_PT079H.grib2 2026-05-03 09:08 468K
20260503T06Z_MSC_RDPS_WindV_IsbL-0650_RLatLon0.09_PT079H.grib2 2026-05-03 09:08 486K
20260503T06Z_MSC_RDPS_WindV_IsbL-0700_RLatLon0.09_PT079H.grib2 2026-05-03 09:08 506K
20260503T06Z_MSC_RDPS_WindV_IsbL-0750_RLatLon0.09_PT079H.grib2 2026-05-03 09:08 517K
20260503T06Z_MSC_RDPS_WindV_IsbL-0800_RLatLon0.09_PT079H.grib2 2026-05-03 09:08 561K
20260503T06Z_MSC_RDPS_WindV_IsbL-0850_RLatLon0.09_PT079H.grib2 2026-05-03 09:08 627K
20260503T06Z_MSC_RDPS_WindV_IsbL-0875_RLatLon0.09_PT079H.grib2 2026-05-03 09:08 649K
20260503T06Z_MSC_RDPS_WindV_IsbL-0900_RLatLon0.09_PT079H.grib2 2026-05-03 09:08 662K
20260503T06Z_MSC_RDPS_WindV_IsbL-0925_RLatLon0.09_PT079H.grib2 2026-05-03 09:08 671K
20260503T06Z_MSC_RDPS_WindV_IsbL-0950_RLatLon0.09_PT079H.grib2 2026-05-03 09:08 668K
20260503T06Z_MSC_RDPS_WindV_IsbL-0970_RLatLon0.09_PT079H.grib2 2026-05-03 09:08 663K
20260503T06Z_MSC_RDPS_WindV_IsbL-0985_RLatLon0.09_PT079H.grib2 2026-05-03 09:08 661K
20260503T06Z_MSC_RDPS_WindV_IsbL-1000_RLatLon0.09_PT079H.grib2 2026-05-03 09:08 797K
20260503T06Z_MSC_RDPS_WindV_IsbL-1015_RLatLon0.09_PT079H.grib2 2026-05-03 09:08 789K